| time (UTC) | temp F | wind direction | speed MPH | gust MPH | rain 1hr in | rain 24hr in | rain mn in | humidity % | barometer mb |
| 20260904182017 | 73 | 360 | 1.0 | 5.0 | 0.00 | 1.20 | 0.01 | 80 | 1014.5 |
| 20260904181517 | 72 | 360 | 1.0 | 4.0 | 0.00 | 1.20 | 0.01 | 80 | 1014.5 |
| 20260904181017 | 73 | 360 | 1.0 | 3.0 | 0.00 | 1.20 | 0.01 | 80 | 1014.4 |
| 20260904180518 | 73 | 360 | 1.0 | 4.0 | 0.00 | 1.20 | 0.01 | 81 | 1014.4 |
| 20260904180017 | 73 | 331 | 0.0 | 3.0 | 0.00 | 1.20 | 0.01 | 81 | 1014.4 |
| 20260904175517 | 72 | 275 | 1.0 | 3.0 | 0.00 | 1.20 | 0.01 | 81 | 1014.4 |
| 20260904175018 | 72 | 259 | 2.0 | 8.0 | 0.00 | 1.20 | 0.01 | 81 | 1014.5 |
| 20260904174538 | 72 | 315 | 2.0 | 5.0 | 0.00 | 1.20 | 0.01 | 81 | 1014.4 |
| 20260904174018 | 72 | 360 | 2.0 | 8.0 | 0.00 | 1.20 | 0.01 | 81 | 1014.5 |
| 20260904173517 | 72 | 360 | 1.0 | 5.0 | 0.00 | 1.20 | 0.01 | 81 | 1014.4 |
| 20260904173017 | 72 | 360 | 2.0 | 4.0 | 0.00 | 1.20 | 0.01 | 81 | 1014.5 |
| 20260904172517 | 71 | 360 | 2.0 | 5.0 | 0.00 | 1.20 | 0.01 | 81 | 1014.8 |
| 20260904172017 | 71 | 360 | 2.0 | 4.0 | 0.00 | 1.20 | 0.01 | 81 | 1015.1 |
| 20260904171517 | 71 | 360 | 1.0 | 4.0 | 0.00 | 1.20 | 0.01 | 81 | 1015.2 |
| 20260904171017 | 71 | 360 | 1.0 | 5.0 | 0.00 | 1.20 | 0.01 | 81 | 1015.3 |
| 20260904170517 | 71 | 0 | 0.0 | 0.0 | 0.00 | 1.20 | 0.01 | 81 | 1015.3 |
| 20260904170017 | 70 | 0 | 0.0 | 0.0 | 0.00 | 1.20 | 0.01 | 81 | 1015.3 |
| 20260904165517 | 70 | 0 | 0.0 | 0.0 | 0.00 | 1.20 | 0.01 | 81 | 1015.4 |
| 20260904165017 | 70 | 0 | 0.0 | 0.0 | 0.00 | 1.20 | 0.01 | 81 | 1015.5 |
| 20260904164517 | 69 | 0 | 0.0 | 0.0 | 0.00 | 1.20 | 0.01 | 81 | 1015.5 |
| 20260904164017 | 69 | 0 | 0.0 | 0.0 | 0.00 | 1.20 | 0.01 | 81 | 1015.8 |
| 20260904163517 | 69 | 0 | 0.0 | 0.0 | 0.00 | 1.20 | 0.01 | 81 | 1015.9 |
| 20260904163017 | 69 | 0 | 0.0 | 0.0 | 0.00 | 1.20 | 0.01 | 81 | 1016.0 |
| 20260904162517 | 69 | 1 | 0.0 | 0.0 | 0.00 | 1.20 | 0.01 | 81 | 1016.2 |
| 20260904162017 | 69 | 4 | 0.0 | 4.0 | 0.00 | 1.20 | 0.01 | 81 | 1016.4 |
| 20260904161517 | 68 | 7 | 0.0 | 1.0 | 0.00 | 1.20 | 0.01 | 81 | 1016.5 |
| 20260904161017 | 68 | 11 | 1.0 | 3.0 | 0.00 | 1.20 | 0.01 | 81 | 1016.5 |
| 20260904160517 | 68 | 16 | 1.0 | 4.0 | 0.00 | 1.20 | 0.01 | 81 | 1016.8 |
| 20260904160017 | 68 | 21 | 1.0 | 4.0 | 0.00 | 1.20 | 0.01 | 81 | 1016.8 |
| 20260904155538 | 68 | 23 | 0.0 | 4.0 | 0.00 | 1.20 | 0.01 | 81 | 1016.7 |
| 20260904155017 | 68 | 360 | 0.0 | 0.0 | 0.00 | 1.20 | 0.01 | 81 | 1016.8 |
| 20260904154517 | 68 | 7 | 0.0 | 1.0 | 0.00 | 1.20 | 0.01 | 81 | 1016.6 |
| 20260904154017 | 68 | 8 | 0.0 | 3.0 | 0.00 | 1.20 | 0.01 | 81 | 1016.5 |
| 20260904153517 | 68 | 0 | 0.0 | 0.0 | 0.00 | 1.20 | 0.01 | 81 | 1016.6 |
| 20260904153017 | 68 | 0 | 0.0 | 0.0 | 0.00 | 1.20 | 0.01 | 81 | 1016.7 |
| 20260904152517 | 68 | 0 | 0.0 | 0.0 | 0.00 | 1.20 | 0.01 | 81 | 1016.8 |
| 20260904152017 | 68 | 0 | 0.0 | 0.0 | 0.00 | 1.20 | 0.01 | 81 | 1016.7 |
| 20260904151517 | 68 | 0 | 0.0 | 0.0 | 0.00 | 1.20 | 0.01 | 81 | 1016.6 |
| 20260904151017 | 68 | 11 | 0.0 | 0.0 | 0.00 | 1.20 | 0.01 | 81 | 1016.6 |
| 20260904150517 | 68 | 10 | 1.0 | 4.0 | 0.00 | 1.20 | 0.01 | 81 | 1016.5 |
| 20260904150017 | 68 | 10 | 0.0 | 4.0 | 0.00 | 1.20 | 0.01 | 81 | 1016.5 |
| 20260904145517 | 68 | 1 | 0.0 | 0.0 | 0.00 | 1.20 | 0.01 | 81 | 1016.4 |
| 20260904145017 | 68 | 4 | 0.0 | 1.0 | 0.00 | 1.20 | 0.01 | 81 | 1016.4 |
| 20260904144517 | 68 | 8 | 1.0 | 1.0 | 0.00 | 1.20 | 0.01 | 81 | 1016.3 |
| 20260904144017 | 68 | 11 | 1.0 | 3.0 | 0.00 | 1.20 | 0.01 | 81 | 1016.3 |
| 20260904143517 | 68 | 28 | 1.0 | 4.0 | 0.00 | 1.20 | 0.01 | 81 | 1016.4 |
| 20260904143017 | 68 | 33 | 1.0 | 4.0 | 0.00 | 1.20 | 0.01 | 81 | 1016.4 |
| 20260904142538 | 68 | 2 | 0.0 | 0.0 | 0.00 | 1.20 | 0.01 | 81 | 1016.3 |
| 20260904142017 | 67 | 19 | 1.0 | 4.0 | 0.00 | 1.20 | 0.01 | 81 | 1016.2 |
| 20260904141517 | 67 | 18 | 0.0 | 5.0 | 0.00 | 1.20 | 0.01 | 81 | 1016.2 |
| 20260904141017 | 67 | 1 | 0.0 | 3.0 | 0.00 | 1.20 | 0.01 | 81 | 1016.3 |
| 20260904140538 | 67 | 16 | 1.0 | 3.0 | 0.00 | 1.20 | 0.01 | 81 | 1016.2 |
| 20260904140017 | 67 | 22 | 1.0 | 4.0 | 0.00 | 1.20 | 0.01 | 81 | 1016.0 |
| 20260904135517 | 67 | 33 | 1.0 | 4.0 | 0.00 | 1.20 | 0.01 | 81 | 1015.9 |
| 20260904135017 | 67 | 35 | 2.0 | 4.0 | 0.00 | 1.20 | 0.01 | 81 | 1015.8 |
| 20260904134517 | 67 | 37 | 2.0 | 5.0 | 0.00 | 1.20 | 0.01 | 81 | 1015.7 |
| 20260904134017 | 67 | 36 | 2.0 | 4.0 | 0.00 | 1.20 | 0.01 | 81 | 1015.8 |
| 20260904133517 | 67 | 33 | 2.0 | 5.0 | 0.00 | 1.20 | 0.01 | 81 | 1015.6 |
| 20260904133017 | 67 | 32 | 2.0 | 4.0 | 0.00 | 1.20 | 0.01 | 81 | 1015.5 |
| 20260904132517 | 67 | 32 | 3.0 | 4.0 | 0.00 | 1.20 | 0.01 | 81 | 1015.5 |
| 20260904132017 | 67 | 32 | 3.0 | 5.0 | 0.00 | 1.20 | 0.01 | 81 | 1015.3 |
| 20260904131517 | 67 | 31 | 3.0 | 5.0 | 0.00 | 1.20 | 0.01 | 81 | 1015.6 |
| 20260904131017 | 67 | 31 | 1.0 | 4.0 | 0.00 | 1.20 | 0.01 | 81 | 1015.6 |
| 20260904130538 | 67 | 26 | 0.0 | 1.0 | 0.00 | 1.20 | 0.01 | 81 | 1015.8 |
| 20260904130017 | 67 | 28 | 0.0 | 1.0 | 0.00 | 1.20 | 0.01 | 81 | 1015.8 |
| 20260904125538 | 67 | 30 | 1.0 | 3.0 | 0.00 | 1.20 | 0.01 | 81 | 1015.7 |
| 20260904125018 | 66 | 24 | 1.0 | 4.0 | 0.00 | 1.20 | 0.01 | 81 | 1015.7 |
| 20260904124517 | 66 | 7 | 2.0 | 3.0 | 0.00 | 1.20 | 0.01 | 81 | 1015.8 |
| 20260904124017 | 66 | 360 | 2.0 | 4.0 | 0.00 | 1.20 | 0.01 | 81 | 1015.7 |
| 20260904123517 | 66 | 360 | 3.0 | 4.0 | 0.00 | 1.20 | 0.01 | 81 | 1015.7 |
| 20260904123017 | 68 | 360 | 0.0 | 1.0 | 0.00 | 1.20 | 0.01 | 80 | 1015.7 |
| 20260904122517 | 68 | 360 | 0.0 | 1.0 | 0.00 | 1.20 | 0.01 | 80 | 1015.8 |
| 20260904122017 | 68 | 360 | 0.0 | 1.0 | 0.00 | 1.20 | 0.01 | 80 | 1015.8 |
| 20260904121538 | 68 | 360 | 0.0 | 1.0 | 0.00 | 1.20 | 0.01 | 80 | 1015.6 |
| 20260904121017 | 68 | 360 | 0.0 | 1.0 | 0.00 | 1.20 | 0.01 | 80 | 1015.7 |
| 20260904120517 | 68 | 360 | 0.0 | 1.0 | 0.00 | 1.20 | 0.01 | 80 | 1015.7 |
| 20260904120017 | 68 | 360 | 0.0 | 1.0 | 0.00 | 1.20 | 0.01 | 80 | 1015.6 |
| 20260904115538 | 68 | 360 | 0.0 | 1.0 | 0.00 | 1.20 | 0.01 | 80 | 1015.6 |
| 20260904115017 | 68 | 360 | 0.0 | 1.0 | 0.00 | 1.20 | 0.01 | 80 | 1015.4 |
| 20260904114517 | 68 | 360 | 0.0 | 1.0 | 0.00 | 1.20 | 0.01 | 80 | 1015.3 |
| 20260904114017 | 68 | 360 | 0.0 | 1.0 | 0.00 | 1.20 | 0.01 | 80 | 1015.2 |
| 20260904113517 | 68 | 360 | 0.0 | 1.0 | 0.00 | 1.20 | 0.01 | 80 | 1015.2 |
| 20260904113017 | 68 | 360 | 0.0 | 1.0 | 0.00 | 1.20 | 0.01 | 80 | 1015.2 |
| 20260904112538 | 68 | 360 | 0.0 | 1.0 | 0.00 | 1.20 | 0.01 | 80 | 1015.2 |
| 20260904112038 | 68 | 360 | 0.0 | 1.0 | 0.00 | 1.20 | 0.01 | 80 | 1015.3 |
| 20260904111538 | 68 | 360 | 0.0 | 1.0 | 0.00 | 1.20 | 0.01 | 80 | 1015.2 |
| 20260904111017 | 68 | 360 | 0.0 | 1.0 | 0.00 | 1.20 | 0.01 | 80 | 1015.2 |
| 20260904110517 | 68 | 360 | 0.0 | 1.0 | 0.00 | 1.20 | 0.01 | 80 | 1015.1 |
| 20260904110017 | 68 | 360 | 0.0 | 1.0 | 0.00 | 1.20 | 0.01 | 80 | 1015.0 |
| 20260904105517 | 68 | 360 | 0.0 | 1.0 | 0.00 | 1.20 | 0.01 | 80 | 1014.9 |
| 20260904105038 | 68 | 360 | 0.0 | 1.0 | 0.00 | 1.20 | 0.01 | 80 | 1014.9 |
| 20260904104517 | 68 | 360 | 0.0 | 1.0 | 0.00 | 1.20 | 0.01 | 80 | 1014.9 |
| 20260904104017 | 68 | 360 | 0.0 | 1.0 | 0.00 | 1.20 | 0.01 | 80 | 1014.8 |
| 20260904103517 | 68 | 360 | 0.0 | 1.0 | 0.00 | 1.20 | 0.01 | 80 | 1014.9 |
| 20260904103017 | 68 | 360 | 0.0 | 1.0 | 0.00 | 1.20 | 0.01 | 80 | 1014.7 |
| 20260904102538 | 68 | 360 | 0.0 | 1.0 | 0.00 | 1.20 | 0.01 | 80 | 1014.4 |
| 20260904102017 | 68 | 360 | 0.0 | 1.0 | 0.00 | 1.20 | 0.01 | 80 | 1014.5 |
| 20260904101517 | 68 | 360 | 0.0 | 1.0 | 0.00 | 1.20 | 0.01 | 80 | 1014.4 |
| 20260904101017 | 68 | 360 | 0.0 | 1.0 | 0.00 | 1.20 | 0.01 | 80 | 1014.5 |
| 20260904100517 | 68 | 360 | 0.0 | 1.0 | 0.00 | 1.20 | 0.01 | 80 | 1014.6 |
| 20260904100038 | 68 | 360 | 0.0 | 1.0 | 0.00 | 1.20 | 0.01 | 80 | 1014.7 |
| 20260904095517 | 68 | 360 | 0.0 | 1.0 | 0.00 | 1.20 | 0.01 | 80 | 1014.8 |
| 20260904095017 | 68 | 360 | 0.0 | 1.0 | 0.00 | 1.20 | 0.01 | 80 | 1014.8 |
| 20260904094517 | 68 | 360 | 0.0 | 1.0 | 0.00 | 1.20 | 0.01 | 80 | 1014.9 |
| 20260904094017 | 68 | 360 | 0.0 | 1.0 | 0.00 | 1.20 | 0.01 | 80 | 1015.0 |
| 20260904093517 | 68 | 360 | 0.0 | 1.0 | 0.00 | 1.20 | 0.01 | 80 | 1014.9 |
| 20260904093017 | 68 | 360 | 0.0 | 1.0 | 0.00 | 1.20 | 0.01 | 80 | 1015.1 |
| 20260904092517 | 68 | 360 | 0.0 | 1.0 | 0.00 | 1.20 | 0.01 | 80 | 1015.1 |
| 20260904092017 | 68 | 360 | 0.0 | 1.0 | 0.00 | 1.20 | 0.01 | 80 | 1014.9 |
| 20260904091517 | 68 | 360 | 0.0 | 1.0 | 0.00 | 1.20 | 0.01 | 80 | 1014.8 |
| 20260904091017 | 68 | 360 | 0.0 | 1.0 | 0.00 | 1.20 | 0.01 | 80 | 1014.8 |
| 20260904090517 | 68 | 360 | 0.0 | 1.0 | 0.00 | 1.20 | 0.01 | 80 | 1014.8 |
| 20260904090017 | 68 | 360 | 0.0 | 1.0 | 0.00 | 1.20 | 0.01 | 80 | 1014.8 |
| 20260904085517 | 68 | 360 | 0.0 | 1.0 | 0.00 | 1.20 | 0.01 | 80 | 1014.8 |
| 20260904085017 | 68 | 360 | 0.0 | 1.0 | 0.00 | 1.20 | 0.01 | 80 | 1014.9 |
| 20260904084517 | 68 | 360 | 0.0 | 1.0 | 0.00 | 1.20 | 0.01 | 80 | 1014.9 |
| 20260904084017 | 68 | 360 | 0.0 | 1.0 | 0.00 | 1.20 | 0.01 | 80 | 1014.8 |
| 20260904083517 | 68 | 360 | 0.0 | 1.0 | 0.00 | 1.20 | 0.01 | 80 | 1014.9 |
| 20260904083017 | 68 | 360 | 0.0 | 1.0 | 0.00 | 1.20 | 0.01 | 80 | 1014.7 |
| 20260904082517 | 68 | 360 | 0.0 | 1.0 | 0.00 | 1.20 | 0.01 | 80 | 1014.6 |
| 20260904082017 | 68 | 360 | 0.0 | 1.0 | 0.00 | 1.20 | 0.01 | 80 | 1014.5 |
| 20260904081517 | 68 | 360 | 0.0 | 1.0 | 0.00 | 1.20 | 0.01 | 80 | 1014.6 |
| 20260904081037 | 68 | 360 | 0.0 | 1.0 | 0.00 | 1.20 | 0.01 | 80 | 1014.7 |
| 20260904080517 | 68 | 360 | 0.0 | 1.0 | 0.00 | 1.20 | 0.01 | 80 | 1014.7 |
| 20260904080017 | 68 | 360 | 0.0 | 1.0 | 0.00 | 1.20 | 0.01 | 80 | 1014.8 |
| 20260904075518 | 68 | 360 | 0.0 | 1.0 | 0.00 | 1.20 | 0.01 | 80 | 1014.8 |
| 20260904075038 | 68 | 360 | 0.0 | 1.0 | 0.00 | 1.20 | 0.01 | 80 | 1014.9 |
| 20260904074538 | 68 | 360 | 0.0 | 1.0 | 0.00 | 1.20 | 0.01 | 80 | 1014.9 |
| 20260904074017 | 68 | 360 | 0.0 | 1.0 | 0.00 | 1.20 | 0.01 | 80 | 1015.1 |
| 20260904073517 | 68 | 360 | 0.0 | 1.0 | 0.00 | 1.20 | 0.01 | 80 | 1015.0 |
| 20260904073017 | 68 | 360 | 0.0 | 1.0 | 0.00 | 1.20 | 0.01 | 80 | 1015.1 |
| 20260904072517 | 68 | 360 | 0.0 | 1.0 | 0.00 | 1.20 | 0.01 | 80 | 1015.1 |
| 20260904072038 | 68 | 360 | 0.0 | 1.0 | 0.00 | 1.20 | 0.01 | 80 | 1015.2 |
| 20260904071517 | 68 | 360 | 0.0 | 1.0 | 0.00 | 1.20 | 0.01 | 80 | 1015.2 |
| 20260904071017 | 68 | 360 | 0.0 | 1.0 | 0.00 | 1.20 | 0.01 | 80 | 1015.3 |
| 20260904070517 | 68 | 360 | 0.0 | 1.0 | 0.00 | 1.20 | 0.01 | 80 | 1015.3 |
| 20260904070017 | 68 | 360 | 0.0 | 1.0 | 0.00 | 1.20 | 0.01 | 80 | 1015.3 |
| 20260904065516 | 68 | 360 | 0.0 | 1.0 | 0.00 | 1.20 | 0.01 | 80 | 1015.4 |
| 20260904065017 | 68 | 360 | 0.0 | 1.0 | 0.00 | 1.20 | 0.01 | 80 | 1015.3 |
| 20260904064517 | 68 | 360 | 0.0 | 1.0 | 0.00 | 1.20 | 0.01 | 80 | 1015.4 |
| 20260904064017 | 68 | 360 | 0.0 | 1.0 | 0.00 | 1.20 | 0.01 | 80 | 1015.3 |
| 20260904063517 | 68 | 360 | 0.0 | 1.0 | 0.00 | 1.20 | 0.01 | 80 | 1015.3 |
| 20260904063016 | 68 | 360 | 0.0 | 1.0 | 0.00 | 1.20 | 0.01 | 80 | 1015.3 |
| 20260904062517 | 68 | 360 | 0.0 | 1.0 | 0.00 | 1.20 | 0.01 | 80 | 1015.3 |
| 20260904062017 | 68 | 360 | 0.0 | 1.0 | 0.00 | 1.20 | 0.01 | 80 | 1015.3 |
| 20260904061517 | 68 | 360 | 0.0 | 1.0 | 0.00 | 1.20 | 0.01 | 80 | 1015.3 |
| 20260904061017 | 68 | 360 | 0.0 | 1.0 | 0.00 | 1.20 | 0.01 | 80 | 1015.4 |
| 20260904060538 | 68 | 360 | 0.0 | 1.0 | 0.00 | 1.20 | 0.01 | 80 | 1015.4 |
| 20260904060017 | 68 | 360 | 0.0 | 1.0 | 0.00 | 1.20 | 0.01 | 80 | 1015.4 |
| 20260904055516 | 68 | 360 | 0.0 | 1.0 | 0.00 | 1.20 | 0.01 | 80 | 1015.4 |
| 20260904055016 | 68 | 360 | 0.0 | 1.0 | 0.00 | 1.20 | 0.01 | 80 | 1015.3 |
| 20260904054517 | 68 | 360 | 0.0 | 1.0 | 0.00 | 1.20 | 0.01 | 80 | 1015.5 |
| 20260904054038 | 68 | 360 | 0.0 | 1.0 | 0.00 | 1.20 | 0.01 | 80 | 1015.7 |
| 20260904053517 | 68 | 360 | 0.0 | 1.0 | 0.00 | 1.20 | 0.01 | 80 | 1015.8 |
| 20260904053017 | 68 | 360 | 0.0 | 1.0 | 0.00 | 1.20 | 0.01 | 80 | 1015.8 |
| 20260904052517 | 68 | 360 | 0.0 | 1.0 | 0.00 | 1.20 | 0.01 | 80 | 1015.8 |
| 20260904052017 | 68 | 360 | 0.0 | 1.0 | 0.00 | 1.20 | 0.01 | 80 | 1015.8 |
| 20260904051516 | 68 | 360 | 0.0 | 1.0 | 0.00 | 1.20 | 0.01 | 80 | 1015.7 |
| 20260904051037 | 68 | 360 | 0.0 | 1.0 | 0.01 | 1.20 | 0.01 | 80 | 1015.7 |
| 20260904050517 | 68 | 360 | 0.0 | 1.0 | 0.01 | 1.20 | 0.01 | 80 | 1015.6 |
| 20260904050016 | 68 | 360 | 0.0 | 1.0 | 0.01 | 1.20 | 0.01 | 80 | 1015.5 |
| 20260904045516 | 68 | 360 | 0.0 | 1.0 | 0.01 | 1.20 | 0.01 | 80 | 1015.5 |
| 20260904045017 | 68 | 360 | 0.0 | 1.0 | 0.01 | 1.20 | 0.01 | 80 | 1015.5 |
| 20260904044516 | 68 | 360 | 0.0 | 1.0 | 0.01 | 1.20 | 0.01 | 80 | 1015.6 |
| 20260904044017 | 68 | 360 | 0.0 | 1.0 | 0.01 | 1.20 | 0.01 | 80 | 1015.5 |
| 20260904043537 | 68 | 360 | 0.0 | 1.0 | 0.01 | 1.20 | 0.01 | 80 | 1015.5 |
| 20260904043038 | 68 | 360 | 0.0 | 1.0 | 0.01 | 1.20 | 0.01 | 80 | 1015.5 |
| 20260904042516 | 68 | 360 | 0.0 | 1.0 | 0.01 | 1.20 | 0.01 | 80 | 1015.3 |
| 20260904042016 | 68 | 360 | 0.0 | 1.0 | 0.01 | 1.20 | 0.01 | 80 | 1015.1 |
| 20260904041516 | 68 | 360 | 0.0 | 0.0 | 0.01 | 1.20 | 0.01 | 80 | 1015.0 |
| 20260904041037 | 68 | 360 | 0.0 | 3.0 | 0.00 | 1.20 | 0.00 | 80 | 1015.1 |
| 20260904040516 | 68 | 360 | 0.0 | 1.0 | 0.00 | 1.20 | 0.00 | 80 | 1015.2 |
| 20260904040017 | 68 | 360 | 0.0 | 1.0 | 0.00 | 1.20 | 0.00 | 80 | 1015.2 |
| 20260904035517 | 68 | 360 | 1.0 | 1.0 | 0.00 | 1.20 | 1.20 | 80 | 1015.1 |
| 20260904035016 | 68 | 360 | 1.0 | 4.0 | 0.00 | 1.20 | 1.20 | 80 | 1015.1 |
| 20260904034516 | 68 | 360 | 0.0 | 3.0 | 0.00 | 1.20 | 1.20 | 80 | 1015.1 |
| 20260904034017 | 68 | 360 | 1.0 | 3.0 | 0.00 | 1.20 | 1.20 | 80 | 1015.0 |
| 20260904033517 | 68 | 360 | 2.0 | 7.0 | 0.00 | 1.20 | 1.20 | 80 | 1015.1 |
| 20260904033017 | 68 | 360 | 1.0 | 7.0 | 0.00 | 1.20 | 1.20 | 80 | 1014.9 |
| 20260904032517 | 68 | 360 | 1.0 | 4.0 | 0.00 | 1.20 | 1.20 | 80 | 1014.9 |
| 20260904032037 | 68 | 360 | 1.0 | 4.0 | 0.00 | 1.20 | 1.20 | 80 | 1014.9 |
| 20260904031516 | 68 | 360 | 1.0 | 3.0 | 0.00 | 1.20 | 1.20 | 80 | 1014.9 |
| 20260904031016 | 68 | 360 | 1.0 | 3.0 | 0.00 | 1.20 | 1.20 | 80 | 1015.0 |
| 20260904030537 | 68 | 360 | 1.0 | 4.0 | 0.00 | 1.20 | 1.20 | 80 | 1015.0 |
| 20260904030016 | 68 | 360 | 0.0 | 4.0 | 0.00 | 1.20 | 1.20 | 80 | 1014.9 |
| 20260904025517 | 67 | 0 | 0.0 | 0.0 | 0.00 | 1.20 | 1.20 | 80 | 1015.0 |
| 20260904025016 | 67 | 0 | 0.0 | 0.0 | 0.00 | 1.20 | 1.20 | 80 | 1014.9 |
| 20260904024516 | 68 | 0 | 0.0 | 0.0 | 0.00 | 1.20 | 1.20 | 80 | 1014.7 |
| 20260904024016 | 68 | 0 | 0.0 | 0.0 | 0.00 | 1.20 | 1.20 | 80 | 1014.7 |
| 20260904023517 | 68 | 0 | 0.0 | 0.0 | 0.00 | 1.20 | 1.20 | 79 | 1014.5 |
| 20260904023017 | 68 | 0 | 0.0 | 0.0 | 0.00 | 1.20 | 1.20 | 79 | 1014.7 |
| 20260904022517 | 68 | 0 | 0.0 | 0.0 | 0.00 | 1.20 | 1.20 | 79 | 1014.8 |
| 20260904022037 | 68 | 0 | 0.0 | 0.0 | 0.00 | 1.20 | 1.20 | 79 | 1014.7 |
| 20260904021517 | 68 | 0 | 0.0 | 0.0 | 0.00 | 1.20 | 1.20 | 79 | 1014.9 |
| 20260904021016 | 68 | 0 | 0.0 | 0.0 | 0.00 | 1.24 | 1.20 | 79 | 1014.9 |
| 20260904020517 | 68 | 0 | 0.0 | 0.0 | 0.00 | 1.28 | 1.20 | 79 | 1015.0 |
| 20260904020016 | 68 | 0 | 0.0 | 0.0 | 0.00 | 1.28 | 1.20 | 79 | 1014.9 |
| 20260904015516 | 68 | 0 | 0.0 | 0.0 | 0.00 | 1.28 | 1.20 | 79 | 1014.9 |
| 20260904015038 | 68 | 0 | 0.0 | 0.0 | 0.00 | 1.28 | 1.20 | 79 | 1014.9 |
| 20260904014516 | 68 | 0 | 0.0 | 0.0 | 0.00 | 1.28 | 1.20 | 79 | 1014.9 |
| 20260904014016 | 68 | 0 | 0.0 | 0.0 | 0.00 | 1.28 | 1.20 | 79 | 1014.7 |
| 20260904013516 | 68 | 0 | 0.0 | 0.0 | 0.00 | 1.28 | 1.20 | 79 | 1014.6 |
| 20260904013017 | 68 | 0 | 0.0 | 0.0 | 0.00 | 1.28 | 1.20 | 79 | 1014.4 |
| 20260904012516 | 68 | 0 | 0.0 | 0.0 | 0.00 | 1.28 | 1.20 | 79 | 1014.4 |
| 20260904012037 | 68 | 0 | 0.0 | 0.0 | 0.00 | 1.28 | 1.20 | 79 | 1014.4 |
| 20260904011516 | 68 | 0 | 0.0 | 0.0 | 0.00 | 1.28 | 1.20 | 79 | 1014.3 |
| 20260904011037 | 68 | 0 | 0.0 | 0.0 | 0.00 | 1.28 | 1.20 | 79 | 1014.3 |
| 20260904010516 | 68 | 0 | 0.0 | 0.0 | 0.00 | 1.28 | 1.20 | 79 | 1014.3 |
| 20260904010037 | 68 | 0 | 0.0 | 0.0 | 0.00 | 1.28 | 1.20 | 79 | 1014.2 |
| 20260904005516 | 68 | 0 | 0.0 | 0.0 | 0.00 | 1.28 | 1.20 | 79 | 1014.1 |
| 20260904005037 | 69 | 0 | 0.0 | 0.0 | 0.00 | 1.28 | 1.20 | 79 | 1014.2 |
| 20260904004516 | 69 | 0 | 0.0 | 0.0 | 0.00 | 1.28 | 1.20 | 79 | 1014.3 |
| 20260904004016 | 69 | 0 | 0.0 | 0.0 | 0.00 | 1.28 | 1.20 | 79 | 1014.0 |
| 20260904003516 | 69 | 0 | 0.0 | 0.0 | 0.00 | 1.28 | 1.20 | 78 | 1014.0 |
| 20260904003016 | 69 | 0 | 0.0 | 0.0 | 0.00 | 1.28 | 1.20 | 78 | 1014.0 |
| 20260904002516 | 69 | 0 | 0.0 | 0.0 | 0.00 | 1.29 | 1.20 | 78 | 1014.0 |
| 20260904002016 | 69 | 0 | 0.0 | 0.0 | 0.00 | 1.29 | 1.20 | 78 | 1014.0 |
| 20260904001537 | 69 | 0 | 0.0 | 0.0 | 0.00 | 1.29 | 1.20 | 78 | 1014.0 |
| 20260904001016 | 69 | 0 | 0.0 | 0.0 | 0.00 | 1.29 | 1.20 | 78 | 1013.9 |
| 20260904000516 | 69 | 0 | 0.0 | 0.0 | 0.00 | 1.29 | 1.20 | 78 | 1013.8 |
| 20260904000037 | 69 | 0 | 0.0 | 0.0 | 0.00 | 1.29 | 1.20 | 78 | 1013.9 |
| 20260903235516 | 69 | 0 | 0.0 | 0.0 | 0.00 | 1.29 | 1.20 | 78 | 1013.7 |
| 20260903235037 | 69 | 0 | 0.0 | 0.0 | 0.00 | 1.29 | 1.20 | 78 | 1013.7 |
| 20260903234537 | 69 | 0 | 0.0 | 0.0 | 0.00 | 1.29 | 1.20 | 78 | 1013.6 |
| 20260903234016 | 69 | 0 | 0.0 | 0.0 | 0.00 | 1.29 | 1.20 | 78 | 1013.4 |
| 20260903233516 | 69 | 0 | 0.0 | 0.0 | 0.00 | 1.29 | 1.20 | 78 | 1013.8 |
| 20260903233016 | 69 | 360 | 0.0 | 0.0 | 0.00 | 1.29 | 1.20 | 78 | 1013.7 |
| 20260903232516 | 69 | 350 | 0.0 | 1.0 | 0.00 | 1.29 | 1.20 | 78 | 1013.8 |
| 20260903232037 | 69 | 352 | 1.0 | 3.0 | 0.00 | 1.29 | 1.20 | 77 | 1013.7 |
| 20260903231537 | 69 | 355 | 1.0 | 5.0 | 0.00 | 1.29 | 1.20 | 77 | 1013.7 |
| 20260903231016 | 69 | 360 | 0.0 | 3.0 | 0.00 | 1.29 | 1.20 | 77 | 1013.2 |
| 20260903230516 | 69 | 0 | 0.0 | 0.0 | 0.00 | 1.29 | 1.20 | 77 | 1012.9 |
| 20260903230017 | 69 | 0 | 0.0 | 0.0 | 0.01 | 1.29 | 1.20 | 77 | 1012.9 |
| 20260903225517 | 69 | 0 | 0.0 | 0.0 | 0.01 | 1.29 | 1.20 | 77 | 1012.8 |
| 20260903225016 | 69 | 0 | 0.0 | 0.0 | 0.02 | 1.29 | 1.20 | 77 | 1013.0 |
| 20260903224516 | 69 | 0 | 0.0 | 0.0 | 0.02 | 1.29 | 1.20 | 77 | 1012.8 |
| 20260903224016 | 69 | 360 | 0.0 | 0.0 | 0.03 | 1.29 | 1.20 | 77 | 1012.9 |
| 20260903223516 | 69 | 360 | 1.0 | 3.0 | 0.03 | 1.29 | 1.20 | 75 | 1012.7 |
| 20260903223016 | 69 | 360 | 0.0 | 4.0 | 0.04 | 1.29 | 1.20 | 75 | 1012.4 |
| 20260903222537 | 69 | 360 | 1.0 | 1.0 | 0.05 | 1.29 | 1.20 | 75 | 1012.4 |
| 20260903222016 | 69 | 360 | 2.0 | 7.0 | 0.06 | 1.29 | 1.20 | 75 | 1012.3 |
| 20260903221516 | 69 | 360 | 2.0 | 5.0 | 0.08 | 1.29 | 1.20 | 75 | 1012.5 |
| 20260903221016 | 69 | 360 | 2.0 | 4.0 | 0.09 | 1.29 | 1.20 | 75 | 1012.7 |
| 20260903220516 | 70 | 360 | 1.0 | 7.0 | 0.10 | 1.29 | 1.20 | 75 | 1013.0 |
| 20260903220017 | 70 | 360 | 0.0 | 0.0 | 0.10 | 1.28 | 1.19 | 75 | 1013.3 |
| 20260903215516 | 70 | 360 | 0.0 | 3.0 | 0.11 | 1.29 | 1.19 | 77 | 1013.5 |
| 20260903215016 | 70 | 360 | 0.0 | 3.0 | 0.13 | 1.31 | 1.18 | 77 | 1013.6 |
| 20260903214516 | 70 | 360 | 0.0 | 3.0 | 0.22 | 1.31 | 1.17 | 77 | 1013.7 |
| 20260903214016 | 70 | 356 | 0.0 | 3.0 | 0.40 | 1.30 | 1.17 | 77 | 1013.6 |
| 20260903213516 | 70 | 359 | 1.0 | 3.0 | 0.91 | 1.30 | 1.17 | 77 | 1014.0 |
| 20260903213037 | 70 | 360 | 2.0 | 7.0 | 0.94 | 1.29 | 1.16 | 78 | 1014.0 |
| 20260903212516 | 70 | 360 | 3.0 | 7.0 | 0.94 | 1.28 | 1.15 | 78 | 1014.4 |
| 20260903212016 | 70 | 360 | 2.0 | 7.0 | 1.04 | 1.28 | 1.14 | 78 | 1014.3 |
| 20260903211517 | 70 | 360 | 1.0 | 4.0 | 1.11 | 1.25 | 1.12 | 79 | 1013.9 |
| 20260903211016 | 70 | 360 | 1.0 | 4.0 | 1.09 | 1.24 | 1.10 | 79 | 1014.0 |
| 20260903210516 | 70 | 360 | 2.0 | 8.0 | 1.09 | 1.23 | 1.09 | 79 | 1014.2 |
| 20260903210016 | 70 | 360 | 4.0 | 5.0 | 1.08 | 1.22 | 1.09 | 79 | 1014.3 |
| 20260903205516 | 70 | 360 | 5.0 | 15.0 | 1.07 | 1.21 | 1.08 | 80 | 1014.5 |
| 20260903205016 | 71 | 360 | 7.0 | 20.0 | 1.05 | 1.19 | 1.06 | 80 | 1014.0 |
| 20260903204537 | 71 | 360 | 14.0 | 19.0 | 0.94 | 1.09 | 0.96 | 58 | 1014.1 |
| 20260903203516 | 77 | 360 | 5.0 | 27.0 | 0.24 | 0.39 | 0.25 | 79 | 1015.7 |
| 20260903203037 | 77 | 360 | 2.0 | 5.0 | 0.20 | 0.35 | 0.21 | 78 | 1014.4 |
| 20260903202516 | 78 | 360 | 1.0 | 5.0 | 0.20 | 0.34 | 0.20 | 78 | 1013.7 |
| 20260903202016 | 78 | 360 | 2.0 | 5.0 | 0.09 | 0.24 | 0.10 | 78 | 1013.4 |
| 20260903201516 | 78 | 360 | 1.0 | 11.0 | 0.00 | 0.14 | 0.01 | 77 | 1014.0 |
| 20260903201016 | 79 | 360 | 0.0 | 5.0 | 0.00 | 0.14 | 0.01 | 77 | 1013.7 |
| 20260903200516 | 79 | 360 | 0.0 | 1.0 | 0.00 | 0.14 | 0.01 | 75 | 1013.5 |
| 20260903200016 | 79 | 360 | 0.0 | 3.0 | 0.00 | 0.14 | 0.01 | 75 | 1013.3 |
| 20260903195516 | 79 | 360 | 0.0 | 1.0 | 0.00 | 0.14 | 0.01 | 75 | 1013.3 |
| 20260903195016 | 79 | 360 | 0.0 | 1.0 | 0.00 | 0.14 | 0.01 | 74 | 1013.0 |
| 20260903194516 | 80 | 360 | 1.0 | 5.0 | 0.00 | 0.14 | 0.01 | 74 | 1013.2 |
| 20260903194016 | 80 | 360 | 0.0 | 4.0 | 0.00 | 0.14 | 0.01 | 74 | 1013.3 |
| 20260903193516 | 80 | 0 | 0.0 | 0.0 | 0.00 | 0.14 | 0.01 | 74 | 1013.1 |
| 20260903193016 | 80 | 360 | 0.0 | 0.0 | 0.00 | 0.14 | 0.01 | 73 | 1012.9 |
| 20260903192516 | 80 | 360 | 0.0 | 1.0 | 0.00 | 0.14 | 0.01 | 73 | 1012.9 |
| 20260903192016 | 80 | 360 | 0.0 | 3.0 | 0.00 | 0.14 | 0.01 | 73 | 1012.9 |
| 20260903191516 | 80 | 360 | 0.0 | 3.0 | 0.00 | 0.14 | 0.01 | 73 | 1013.0 |
| 20260903191016 | 80 | 360 | 0.0 | 3.0 | 0.00 | 0.14 | 0.01 | 72 | 1013.0 |
| 20260903190516 | 81 | 360 | 0.0 | 3.0 | 0.00 | 0.14 | 0.01 | 72 | 1013.0 |
| 20260903190016 | 81 | 360 | 1.0 | 4.0 | 0.00 | 0.14 | 0.01 | 72 | 1013.1 |
| 20260903185516 | 81 | 360 | 1.0 | 5.0 | 0.00 | 0.14 | 0.01 | 71 | 1012.9 |
| 20260903185016 | 81 | 360 | 1.0 | 5.0 | 0.00 | 0.14 | 0.01 | 71 | 1013.1 |
| 20260903184516 | 81 | 360 | 1.0 | 5.0 | 0.00 | 0.14 | 0.01 | 71 | 1013.2 |
| 20260903184016 | 81 | 360 | 1.0 | 4.0 | 0.00 | 0.14 | 0.01 | 71 | 1013.1 |
| 20260903183516 | 81 | 360 | 3.0 | 5.0 | 0.00 | 0.14 | 0.01 | 70 | 1013.1 |
| 20260903183016 | 82 | 360 | 3.0 | 7.0 | 0.00 | 0.14 | 0.01 | 70 | 1013.3 |
| 20260903182516 | 82 | 360 | 2.0 | 8.0 | 0.00 | 0.14 | 0.01 | 70 | 1013.6 |